| time (UTC) | temp F | wind direction | speed MPH | gust MPH | rain 1hr in | rain 24hr in | rain mn in | humidity % | barometer mb |
| 20260502213317 | 50 | 206 | 0.0 | 0.0 | 0.00 | 0.79 | 0.00 | 90 | 1024.7 |
| 20260502210316 | 47 | 217 | 0.0 | 1.0 | 0.00 | 1.10 | 0.00 | 90 | 1024.3 |
| 20260502203315 | 46 | 161 | 0.0 | 0.0 | 0.00 | 1.10 | 0.00 | 92 | 1023.9 |
| 20260502200353 | 45 | 161 | 0.0 | 0.0 | 0.00 | 1.54 | 0.00 | 92 | 1023.6 |
| 20260502193351 | 45 | 161 | 0.0 | 0.0 | 0.00 | 1.54 | 0.00 | 92 | 1023.3 |
| 20260502190328 | 44 | 161 | 0.0 | 0.0 | 0.00 | 1.57 | 0.00 | 91 | 1023.6 |
| 20260502183347 | 44 | 161 | 0.0 | 0.0 | 0.00 | 1.57 | 0.00 | 91 | 1023.5 |
| 20260502180324 | 44 | 161 | 0.0 | 1.0 | 0.00 | 1.57 | 0.00 | 91 | 1023.5 |
| 20260502170321 | 43 | 161 | 0.0 | 1.0 | 0.00 | 1.57 | 0.00 | 89 | 1023.6 |
| 20260502163321 | 44 | 99 | 0.0 | 0.0 | 0.00 | 1.57 | 0.00 | 88 | 1023.2 |
| 20260502160318 | 44 | 99 | 0.0 | 1.0 | 0.00 | 1.57 | 0.00 | 86 | 1023.3 |
| 20260502150352 | 48 | 308 | 0.0 | 3.0 | 0.00 | 1.57 | 0.31 | 79 | 1022.9 |
| 20260502130326 | 48 | 75 | 1.0 | 4.0 | 0.00 | 1.61 | 0.31 | 78 | 1022.7 |
| 20260502123326 | 48 | 73 | 0.0 | 0.0 | 0.00 | 1.61 | 0.31 | 78 | 1022.7 |
| 20260502120324 | 50 | 73 | 0.0 | 0.0 | 0.00 | 2.05 | 0.31 | 76 | 1022.6 |
| 20260502113324 | 51 | 72 | 0.0 | 0.0 | 0.00 | 2.05 | 0.31 | 70 | 1022.7 |
| 20260502110322 | 53 | 72 | 0.0 | 3.0 | 0.00 | 2.05 | 0.31 | 68 | 1022.2 |
| 20260502103321 | 55 | 94 | 0.0 | 1.0 | 0.00 | 2.05 | 0.31 | 65 | 1021.6 |
| 20260502100319 | 58 | 254 | 0.0 | 5.0 | 0.00 | 2.05 | 0.31 | 57 | 1021.0 |
| 20260502090317 | 61 | 319 | 4.0 | 11.0 | 0.00 | 2.09 | 0.31 | 51 | 1020.0 |
| 20260502070326 | 64 | 317 | 7.0 | 23.0 | 0.00 | 2.09 | 0.31 | 44 | 1017.8 |
| 20260502063326 | 63 | 267 | 13.0 | 31.0 | 0.00 | 2.09 | 0.31 | 43 | 1016.9 |
| 20260502060324 | 64 | 356 | 14.0 | 23.0 | 0.04 | 2.56 | 0.31 | 43 | 1016.8 |
| 20260502053325 | 64 | 297 | 8.0 | 21.0 | 0.08 | 2.56 | 0.31 | 44 | 1016.7 |
| 20260502050322 | 64 | 306 | 14.0 | 45.0 | 0.04 | 2.56 | 0.31 | 42 | 1016.2 |
| 20260502043341 | 63 | 298 | 8.0 | 22.0 | 0.00 | 2.52 | 0.30 | 48 | 1016.5 |
| 20260502040318 | 62 | 254 | 7.0 | 27.0 | 0.00 | 2.64 | 0.30 | 48 | 1016.8 |
| 20260502033318 | 63 | 309 | 15.0 | 29.0 | 0.08 | 2.64 | 0.30 | 48 | 1014.7 |
| 20260502030336 | 63 | 291 | 7.0 | 29.0 | 0.08 | 3.74 | 0.30 | 50 | 1013.4 |
| 20260502023336 | 63 | 276 | 11.0 | 26.0 | 0.00 | 3.66 | 0.28 | 52 | 1013.1 |
| 20260502020333 | 61 | 304 | 11.0 | 28.0 | 0.00 | 4.61 | 0.28 | 59 | 1012.7 |
| 20260502013332 | 60 | 310 | 9.0 | 17.0 | 0.00 | 4.61 | 0.28 | 65 | 1013.2 |
| 20260502010330 | 58 | 314 | 12.0 | 25.0 | 0.00 | 5.24 | 0.28 | 67 | 1012.7 |
| 20260502003330 | 57 | 292 | 10.0 | 26.0 | 0.00 | 5.24 | 0.28 | 69 | 1011.8 |
| 20260502000328 | 56 | 285 | 12.0 | 25.0 | 0.00 | 5.91 | 0.28 | 70 | 1011.3 |
| 20260501233328 | 55 | 283 | 17.0 | 29.0 | 0.04 | 5.91 | 0.28 | 70 | 1010.5 |
| 20260501230325 | 55 | 297 | 14.0 | 29.0 | 0.12 | 6.38 | 0.28 | 65 | 1009.1 |
| 20260501223325 | 53 | 295 | 14.0 | 33.0 | 0.35 | 6.34 | 0.28 | 70 | 1007.8 |